Location: Newark
(35.4036°N, 80.4356°W)
Time: 18:10:35
(UTC+00:00)

Envisat - Visible Passes

Search period start: 25 August 2019 00:00
Search period end: 04 September 2019 00:00
Orbit: 764 x 766 km, 98.1° (Epoch: 25 August)

Date Brightness Start Highest point End Pass type
(mag) Time Alt. Az. Time Alt. Az. Time Alt. Az.
25 Aug 5.1 00:25:16 10° SSW 00:29:44 31° W 00:34:13 10° NW visible
27 Aug 5.8 00:52:09 10° SW 00:55:25 17° W 00:58:41 10° NW visible
28 Aug 4.6 00:13:41 10° SSW 00:18:26 40° W 00:23:12 10° NNW visible
30 Aug 5.6 00:40:12 10° SW 00:44:04 22° W 00:47:59 10° NW visible
01 Sep 6.1 01:08:07 10° WSW 01:09:49 12° W 01:11:31 10° WNW visible
02 Sep 5.2 00:28:26 10° SSW 00:32:45 28° W 00:37:07 10° NW visible
